Regional Weather Roundup
Issued by NWS

Home | Current Version | Previous Version | Text Only | Print | Product List | Glossary Off
Versions: 1 2 3 4 5 6 7 8 9 10 11 12 13 14 15 16 17 18 19 20 21 22 23 24 25 26 27 28 29 30 31 32 33 34 35 36 37 38 39 40 41 42 43 44 45 46 47 48 49 50

000
ASUS43 KMKX 210521
RWRWI

WISCONSIN REGIONAL WEATHER ROUNDUP
NATIONAL WEATHER SERVICE MILWAUKEE/SULLIVAN WI
1200 AM CDT FRI JUL 21 2017

NOTE: "FAIR" INDICATES FEW OR NO CLOUDS BELOW 12,000 FEET WITH NO
SIGNIFICANT WEATHER AND/OR OBSTRUCTIONS TO VISIBILITY.

WIZ001-002-006>008-014>016-023>028-210600-
NORTHWEST WISCONSIN

CITY           SKY/WX    TMP DP  RH WIND       PRES   REMARKS
SUPERIOR ARPT  NOT AVBL
ASHLAND        CLEAR     66  62  87 W3        29.97S
HAYWARD        PTCLDY    63  60  90 CALM      30.00R
SIREN          CLOUDY    66  64  93 CALM      29.98S
CUMBERLAND     CLEAR     64  63  94 CALM      29.99F FOG
RICE LAKE      FOG       64  63  97 CALM      30.00F VSB 3/4
CHETEK         CLEAR     65  65  99 CALM      29.99S
LADYSMITH      PTCLDY    67  64  93 CALM      30.01F
EAU CLAIRE     FOG       64  64 100 CALM      29.97R VSB 1/4
MENOMONIE      CLEAR     67  66  98 CALM      29.98S FOG
NEW RICHMOND   PTCLDY    66  65  97 CALM      29.97F FOG
OSCEOLA        PTCLDY    65  65 100 CALM      29.99F
$$

WIZ003>005-009-010-017-018-210600-
NORTH CENTRAL WISCONSIN

CITY           SKY/WX    TMP DP  RH WIND       PRES   REMARKS
MANITOWISH WTR CLEAR     59  59 100 CALM      30.01F
ARBOR VITAE    CLEAR     62  60  91 CALM      30.01S
WOODRUFF       CLEAR     62  60  91 CALM      30.01S
RHINELANDER    FOG       60  60 100 CALM      30.02S VSB 1/4
EAGLE RIVER    CLEAR     59  59 100 CALM      30.02R FOG
LAND O LAKES   CLEAR     57  57 100 CALM      30.03S
PHILLIPS       CLOUDY    61  61 100 CALM      30.00F
TOMAHAWK         N/A     59  58  96 CALM      30.02R
MEDFORD        CLEAR     64  64  98 CALM      30.01S FOG
MERRILL        PTCLDY    62  62 100 CALM      30.01R
$$

WIZ029-030-035-036-043>047-210600-
CENTRAL WISCONSIN

CITY           SKY/WX    TMP DP  RH WIND       PRES   REMARKS
WAUSAU         CLEAR     69  65  86 N6        29.98S
MOSINEE        CLEAR     68  64  88 NW6       30.00S
MARSHFIELD     CLEAR     68  63  84 CALM      29.99S
STEVENS POINT  CLEAR     63  63 100 CALM      29.99S
WAUPACA        CLEAR     68  67  96 CALM      29.97F
WAUTOMA        CLEAR     67  66  97 CALM      29.98F
WISC RAPIDS    CLEAR     65  64  97 CALM      29.99F
CAMP DOUGLAS   FOG       64  64 100 CALM      29.98S VSB 1/2
$$

WIZ011>013-019>022-031-037>040-048>050-210600-
NORTHEAST WISCONSIN

CITY           SKY/WX    TMP DP  RH WIND       PRES   REMARKS
ANTIGO         CLEAR     62  60  93 CALM      30.01S
SHAWANO        CLEAR     67  64  91 CALM      29.97S
OCONTO         CLEAR     65  64  97 CALM      29.94S
STURGEON BAY     N/A     71  68  90 NW3       29.95S
GREEN BAY      CLEAR     69  68  96 W3        29.95S
MANITOWOC      CLEAR     68  66  93 CALM      29.96F
APPLETON       CLEAR     70  61  73 W7        29.96S
CLINTONVILLE   CLEAR     64  63  94 CALM      29.97S
OSHKOSH        CLEAR     70  67  90 CALM      29.96F
$$

WIZ032>034-041-042-053>061-210600-
SOUTHWEST WISCONSIN

CITY           SKY/WX    TMP DP  RH WIND       PRES   REMARKS
LA CROSSE      CLEAR     73  70  90 S6        29.96F
SPARTA         CLEAR     64  64 100 CALM      29.99R
VIROQUA        CLEAR     70  70 100 S5        30.02R
BOSCOBEL       FOG       70  69  97 CALM      30.00R VSB 1/4
PRAIRIE DU CHI FOG       70  68  95 CALM      29.98S VSB 1
PLATTEVILLE    CLOUDY    75  73  95 E5        30.01R
$$

WIZ056-057-062-063-064-067-068-210600-
SOUTH CENTRAL WISCONSIN

CITY           SKY/WX    TMP DP  RH WIND       PRES   REMARKS
REEDSBURG        N/A     66  66 100 CALM      29.99S FOG
BARABOO/DELLS  CLEAR     67  65  94 CALM      29.99F FOG
LONE ROCK      CLOUDY    68  66  93 CALM      30.00R
MINERAL POINT  CLOUDY    73  72  94 NE5       30.01R
MADISON        CLEAR     69  68  96 CALM      29.98F
MIDDLETON      CLEAR     68  68 100 W3        30.01R
WATERTOWN      CLEAR     69  69 100 CALM      29.98S
MONROE         CLOUDY    75  72  88 N3        30.00S
JANESVILLE     FOG       72  72 100 CALM      29.98R VSB 1
$$

WIZ051-052-058>065-066-070>072-210600-
SOUTHEAST WISCONSIN

CITY           SKY/WX    TMP DP  RH WIND       PRES   REMARKS
MILWAUKEE      PTCLDY    76  70  82 NW3       29.97F
WAUKESHA       CLEAR     70  68  94 CALM      30.00R
MILWAUKEE/TIMM CLEAR     72  66  83 CALM      29.99R
RACINE         CLEAR     70  68  93 CALM      29.99S
KENOSHA        CLEAR     71  68  90 SW5       29.98S
FOND DU LAC    CLEAR     70  66  87 SW5       29.97F
SHEBOYGAN      CLEAR     67  67 100 CALM      29.96S FOG
WEST BEND      CLEAR     68  68 100 CALM      29.98S
JUNEAU         CLEAR     68  67  95 CALM      30.00R
$$

LSZ147-162-210600-
LAKE SUPERIOR

STATION/POSITION TIME  TEMP    WIND        PRES    WAVE
                       AIR SEA DIR/SP/G            HT/PER
                 (UTC) (F)     (DEG/KT/KT) (MB)    (FT/S)
W MID LAKE BUOY  0450   60 48  300/  6/  8 1014.0F   1
DEVILS ISLAND    0500   73     250/  5/  6 1013.8F
SAXON HARBOR     0430   70     200/  6/ 10 1013.9S
$$

LMZ867-665-643>646-210600-
LAKE MICHIGAN

STATION/POSITION TIME  TEMP    WIND        PRES    WAVE
                       AIR SEA DIR/SP/G            HT/PER
                 (UTC) (F)     (DEG/KT/KT) (MB)    (FT/S)
CHAMBERS ISLAND  0440   72      20/  7/  9 1013.5S
S GREEN BAY BUOY 0430   76 74  300/  8/  8 1013.7R
N MID LAKE BUOY  0450   67 65   70/  2/  4 1014.7R   1/ 5
NORTHPORT PIER   0440   70     350/  2/  5 1013.9R
KEWAUNEE LAKESHO 0500   72     330/  4/  5 1013.3
SHEBOYGAN LAKESH 0500   71     200/  5/  5 1013.8F
PORT WASHINGTON  0440   72     270/  2/  3 1015.6S
ATWATER BUOY     0409   69 69  140/  2/  2 1015.0R
MILWAUKEE LAKESH 0500   71     210/  1/  2   N/A
S MID LAKE BUOY  0450   71 71  320/  4/  4 1014.8R   0
KENOSHA   LAKESH 0500   75     230/  6/  8 1014.6
$$

TC  - TEMPERATURE IN CELSIUS
VSB - VISIBILITY IN STATUTE MILES
WCI - WIND CHILL INDEX
HX  - HEAT INDEX





USA.gov is the U.S. government's official web portal to all federal, state and local government web resources and services.